Theta_e
340 354 364 365 361 362 364 363 364 363 363 364 363 363 363 362 363 363 364 363 361 362 361 361 362 363 363 362 362 361 361 362 364 362 362 361 361 361 362 361 360 355 362
345 354 363 364 363 363 364 365 366 364 362 363 363 362 362 363 362 362 362 362 361 362 362 362 361 362 362 362 362 361 361 362 363 360 361 360 360 360 363 360 360 359 362
351 356 359 365 363 363 365 364 364 364 363 363 361 362 362 361 363 362 363 362 362 363 361 362 362 361 361 361 362 362 361 361 362 361 360 354 354 361 361 361 361 360 360
351 353 359 365 366 365 364 364 363 363 362 362 361 360 362 362 363 362 362 363 362 363 362 363 363 360 358 359 361 361 359 360 359 361 353 354 354 360 359 358 358 359 358
350 354 358 367 365 364 363 364 364 363 363 363 363 362 362 362 362 361 362 361 361 363 362 362 362 362 361 361 360 357 357 357 354 353 351 348 351 358 360 360 359 358 358
350 355 363 365 363 362 363 364 363 363 363 363 363 362 362 362 361 361 361 362 362 362 361 360 357 359 359 359 359 356 356 357 354 351 351 354 352 360 359 359 360 360 359
349 353 357 365 362 361 363 363 364 363 363 364 363 363 362 361 362 361 361 361 361 361 360 359 359 356 354 356 358 357 357 356 350 352 350 352 354 362 360 360 360 359 359
348 351 353 360 361 361 362 362 362 364 363 362 363 360 360 360 361 361 360 360 360 360 359 359 357 356 356 356 357 356 356 356 351 349 349 352 359 362 361 361 359 359 359
348 349 352 353 357 361 363 363 364 362 362 362 361 362 360 358 358 358 358 359 359 358 358 358 357 357 356 356 356 357 357 357 349 348 354 355 363 361 360 359 360 360 360
348 349 350 352 353 353 356 363 363 363 362 362 362 363 362 360 357 358 358 357 358 358 357 356 355 354 355 355 356 355 356 356 347 346 348 355 363 361 360 361 360 360 360
344 346 348 349 352 352 354 358 364 363 363 362 361 362 359 353 355 350 352 353 349 357 358 359 356 354 353 356 355 356 357 348 351 351 351 360 363 361 361 360 360 360 360
340 344 347 348 349 351 356 355 354 355 354 356 356 354 353 354 349 352 355 356 354 355 351 353 350 352 357 352 351 353 349 351 349 348 350 360 362 361 360 361 360 358 360
340 343 345 346 346 348 351 353 354 353 352 353 353 355 352 355 354 354 352 353 351 353 347 349 347 345 346 352 352 349 347 350 347 348 354 360 362 359 359 359 360 359 358
339 343 346 346 346 347 350 353 354 354 351 349 353 354 352 352 352 352 350 351 351 350 348 348 347 344 343 351 351 346 348 350 347 350 354 362 362 359 359 358 359 360 360
339 340 340 344 344 347 350 349 351 349 349 350 351 353 353 353 351 352 351 351 351 350 349 346 344 342 342 349 349 351 347 350 347 346 346 356 358 357 359 358 359 359 360
340 338 342 343 344 347 345 348 350 351 353 351 352 350 354 354 351 352 351 351 351 353 350 348 345 344 349 350 346 349 348 351 348 344 346 348 354 355 356 360 359 358 360
336 341 342 343 346 345 348 348 349 350 352 355 354 356 356 353 352 353 354 353 352 354 352 352 350 349 350 352 350 350 350 350 352 348 346 346 349 354 355 358 361 361 360
339 339 341 348 345 345 345 349 350 353 351 353 353 343 354 355 357 355 354 353 355 356 355 352 351 349 348 349 346 348 353 354 353 351 348 347 347 349 354 357 360 360 360
340 340 338 340 344 344 345 351 352 354 351 354 348 344 349 350 358 354 354 355 354 354 353 352 350 349 348 346 350 351 351 352 353 353 352 349 346 347 347 354 356 358 359
340 341 339 341 343 344 353 351 353 352 351 355 351 349 347 348 359 356 356 355 354 353 353 352 347 350 347 347 353 352 352 351 352 351 351 353 348 349 347 345 347 350 357
340 340 339 343 348 355 352 347 346 345 347 354 352 355 353 353 359 358 356 355 354 351 352 351 349 349 350 350 347 346 349 349 351 352 352 349 353 352 348 346 347 348 348
340 341 343 344 344 348 351 350 350 347 352 354 351 355 354 359 360 357 355 354 354 352 351 351 351 349 347 351 342 339 336 340 346 349 348 351 350 351 353 350 349 348 348
340 342 343 345 344 347 350 350 353 352 349 347 349 352 355 358 358 358 355 355 353 353 351 350 351 349 344 349 346 338 334 328 327 339 339 345 345 350 351 353 353 352 351
342 345 345 348 347 349 352 351 350 347 343 345 350 351 350 357 357 356 357 354 356 353 353 352 355 350 352 345 349 349 342 335 323 323 339 339 344 349 349 350 353 353 352
341 345 346 348 353 350 351 351 353 347 348 348 350 350 349 351 355 361 356 355 355 356 355 354 354 351 351 346 346 347 342 338 336 330 325 332 333 335 341 351 350 350 353
343 345 348 348 350 353 353 353 351 352 349 350 347 345 348 340 337 349 359 357 353 355 356 355 354 354 351 352 350 349 346 342 338 340 335 334 331 337 343 350 349 348 351
Wind_Speed
3 6 7 9 9 9 11 12 13 12 11 11 10 12 10 13 14 14 14 14 12 13 14 13 12 12 12 13 14 13 14 16 17 18 19 17 17 18 19 21 19 14 18
10 9 10 10 11 10 11 11 13 12 11 11 11 10 11 10 12 12 14 13 12 14 13 12 13 11 11 12 13 12 12 13 17 18 18 15 13 12 16 20 18 14 18
12 10 12 11 13 10 10 11 13 13 11 11 10 11 10 11 12 13 13 14 12 13 12 12 12 11 11 11 11 12 11 11 13 18 17 7 9 19 19 19 17 17 17
12 10 10 12 12 12 11 12 13 13 12 11 10 10 11 10 10 12 12 12 13 11 12 11 11 11 10 11 11 9 10 10 10 15 6 7 10 15 17 17 16 16 16
13 11 11 14 12 12 11 12 11 11 12 11 11 10 10 11 11 12 11 12 11 11 10 9 10 10 9 10 9 9 8 7 4 2 3 6 6 12 14 14 15 16 15
12 9 12 15 14 13 12 13 11 11 10 10 11 10 10 10 11 11 11 11 10 11 9 9 7 8 6 9 9 6 5 7 9 4 6 10 7 13 13 14 13 15 14
11 8 8 13 14 14 12 12 10 10 9 10 10 10 9 9 9 10 9 11 11 10 10 9 6 5 3 4 7 7 10 9 5 6 5 8 7 10 12 13 15 14 13
12 11 9 12 13 13 14 12 11 9 9 7 9 8 8 7 8 7 9 8 10 10 9 8 7 5 3 3 4 5 6 8 7 4 3 6 10 13 14 14 13 13 13
11 9 8 6 10 13 13 11 10 9 8 7 7 7 9 7 6 6 5 6 9 9 8 7 5 5 3 3 3 4 5 8 3 3 7 4 11 13 14 13 13 12 12
10 10 10 7 7 6 7 11 9 9 8 7 7 8 9 9 6 4 1 3 6 8 8 6 4 3 2 1 3 4 4 2 5 4 1 4 10 14 13 13 13 13 11
2 11 10 10 8 5 6 9 11 11 10 10 9 10 6 7 3 5 7 5 1 6 7 6 3 1 0 2 3 4 7 3 4 2 3 10 11 13 13 12 12 12 13
7 7 9 8 8 6 8 6 5 6 4 5 5 6 8 9 6 10 13 12 8 8 4 3 2 2 4 3 1 1 3 5 3 2 3 10 11 13 12 12 12 12 12
7 6 8 7 6 7 5 4 3 3 3 5 7 6 11 11 10 6 3 3 3 8 2 3 2 2 3 4 3 2 2 4 2 3 7 11 11 13 12 12 13 13 14
6 9 7 7 6 4 4 5 5 4 4 3 5 6 7 6 5 6 4 5 4 3 5 4 3 4 4 5 6 5 4 2 3 2 6 11 10 11 13 13 13 14 13
7 10 8 7 4 1 3 4 2 4 3 3 2 8 8 5 3 5 5 4 4 4 4 4 4 4 4 5 5 6 5 6 7 3 2 12 9 8 10 12 13 14 14
9 10 8 7 3 1 2 5 4 4 4 2 2 4 5 3 6 6 4 4 4 5 4 4 5 4 4 3 3 6 5 6 6 6 5 5 11 10 11 13 13 11 12
7 10 8 8 5 4 3 3 2 2 3 2 2 4 6 4 7 7 6 5 5 5 6 4 4 3 2 2 5 5 5 7 7 6 7 6 6 11 11 13 13 13 14
11 12 9 8 6 6 6 5 3 4 2 3 3 3 7 7 5 4 4 3 4 5 5 4 3 3 3 4 3 4 3 5 7 10 7 6 5 5 8 12 14 13 13
14 13 10 8 8 8 6 5 5 5 3 4 4 2 5 4 1 4 3 3 3 4 4 4 3 3 4 4 3 4 3 5 5 5 7 8 8 6 4 10 11 12 13
14 10 9 7 10 8 5 5 4 4 3 6 4 3 6 4 5 3 3 4 4 3 4 3 3 3 3 3 4 4 5 4 4 5 5 6 6 7 7 6 5 8 14
13 10 8 6 7 5 4 3 1 2 3 5 4 5 5 4 5 4 2 4 4 4 4 4 3 4 4 4 2 2 4 4 5 6 4 4 6 5 7 5 5 5 7
15 12 9 8 8 5 4 2 3 2 1 4 5 7 6 8 2 4 4 3 4 3 4 4 4 2 3 4 4 3 0 4 3 4 6 1 4 5 6 9 8 9 7
15 15 12 11 9 6 6 3 2 0 1 2 0 3 5 5 3 6 6 6 4 3 3 2 3 3 2 2 4 5 2 3 3 4 5 6 7 5 5 6 8 8 7
17 15 13 11 11 9 8 4 4 4 2 1 3 5 4 10 5 6 7 6 5 2 3 3 3 3 3 2 0 3 2 6 4 2 2 2 6 7 3 5 5 5 5
18 16 14 13 12 11 8 8 5 5 3 3 2 3 2 5 2 4 5 6 6 4 3 5 3 3 2 1 1 1 2 2 3 3 2 4 5 5 4 6 5 3 6
16 15 15 15 12 9 9 8 8 7 6 4 4 3 3 3 2 5 5 4 5 5 5 5 5 4 4 4 3 2 2 4 4 4 3 3 5 3 4 7 6 5 5
Wind_Direction
198 129 112 123 116 92 93 92 89 87 85 93 85 80 82 88 95 96 97 99 101 99 98 105 97 90 87 89 89 95 100 103 105 103 103 110 114 115 114 105 106 108 106
145 127 115 116 106 101 102 93 94 87 87 89 87 88 92 97 98 99 102 99 100 107 105 103 97 92 95 94 96 91 95 102 104 104 104 103 104 118 117 110 110 107 104
123 123 111 112 110 109 98 98 94 95 89 87 91 100 99 97 106 103 107 107 109 106 106 106 101 98 99 98 95 100 106 108 116 117 110 86 94 108 107 110 109 107 104
137 125 121 123 122 114 105 101 102 103 96 87 85 95 104 112 104 102 102 107 112 111 111 110 104 102 105 103 103 106 110 117 130 131 70 118 103 105 112 115 114 112 111
127 120 133 125 121 119 120 113 107 108 106 98 89 96 105 102 101 104 106 108 105 112 112 108 109 108 104 104 104 108 104 101 103 282 10 113 102 117 117 117 119 119 115
113 120 135 133 130 125 122 119 121 109 107 102 98 105 108 114 110 109 109 108 109 116 118 107 102 102 100 104 106 115 110 59 49 20 103 113 109 121 128 129 127 115 116
118 127 122 130 131 130 129 123 124 119 119 117 116 114 117 120 114 115 112 120 117 114 115 112 107 119 124 110 127 123 77 90 86 54 78 108 115 128 121 125 121 125 120
131 124 121 133 134 139 133 131 133 126 121 127 127 126 113 112 117 117 119 124 122 123 121 120 118 115 122 168 152 129 118 112 121 93 98 114 129 130 132 126 128 127 128
125 124 125 129 146 144 135 147 144 142 147 158 152 140 133 136 128 120 119 134 127 125 128 129 125 113 107 143 181 144 143 160 129 107 122 129 148 141 137 136 136 134 131
132 144 144 163 152 160 146 162 162 169 179 186 185 177 155 132 105 127 78 165 151 147 142 138 133 127 116 149 191 125 58 204 104 155 132 148 150 147 146 143 143 138 136
148 157 162 165 159 173 170 180 182 193 199 203 202 205 155 88 209 229 255 201 15 145 158 123 112 346 200 225 231 109 94 93 116 156 136 161 154 151 148 149 153 149 149
176 135 150 141 158 177 185 190 187 200 202 204 198 192 98 141 214 198 215 224 217 203 130 136 163 300 289 260 227 145 142 141 170 172 140 162 159 155 156 159 161 160 158
175 163 163 164 148 190 208 171 190 198 206 211 213 163 139 172 207 199 213 253 212 198 183 217 238 254 262 233 155 155 231 146 128 170 167 171 172 162 165 169 171 168 168
225 164 168 157 158 201 175 202 200 191 214 219 209 183 139 167 209 212 211 209 196 185 182 201 202 217 254 259 178 192 215 175 126 134 173 156 162 176 175 178 180 180 174
221 165 167 136 172 187 133 202 134 172 149 164 110 56 125 269 188 211 210 189 196 178 183 190 190 207 226 251 176 191 191 177 153 176 166 169 164 180 193 189 191 185 183
200 164 144 143 177 44 46 50 28 34 88 45 26 116 186 229 196 198 192 192 199 181 191 178 188 189 211 237 190 201 210 170 156 179 170 176 181 182 201 203 193 196 193
156 139 155 151 182 175 127 83 15 327 97 150 260 359 14 232 199 183 186 191 196 180 180 187 198 178 202 270 224 192 167 174 178 172 179 181 184 196 207 205 192 194 195
145 150 156 165 181 191 179 176 195 242 199 80 72 0 331 320 136 194 150 188 183 167 167 179 176 174 200 242 206 219 189 167 181 180 172 172 177 189 197 199 199 200 198
157 159 159 161 178 205 207 164 202 220 225 124 121 186 237 302 208 149 162 155 158 150 162 168 182 167 183 225 227 206 200 199 207 192 176 178 178 183 191 205 201 193 201
152 153 158 159 190 201 182 169 210 212 230 153 171 204 248 247 238 128 134 155 156 153 167 169 167 203 179 193 235 219 219 217 199 207 184 175 183 182 183 188 195 211 211
148 157 162 150 145 160 169 156 81 244 259 138 198 209 208 265 237 153 173 140 160 161 182 172 170 205 223 185 159 272 237 230 221 208 177 191 194 197 176 177 183 190 216
160 165 165 161 164 169 184 155 161 205 233 147 180 198 194 216 213 94 140 103 184 160 186 199 179 208 225 182 166 73 256 356 334 343 7 304 201 172 192 186 187 190 192
163 171 179 174 175 192 201 147 138 60 54 91 217 5 348 204 192 131 144 135 180 175 193 191 197 209 223 229 167 143 80 211 25 6 9 30 2 273 213 187 191 196 193
176 176 175 182 181 193 195 173 176 148 166 198 151 199 120 273 203 160 156 162 170 173 204 221 217 234 185 204 278 197 152 143 163 108 358 14 222 270 227 223 183 198 197
173 174 179 181 184 193 191 178 170 170 178 149 119 68 155 240 312 230 183 173 170 164 205 228 239 233 277 200 218 278 112 85 90 132 176 269 330 263 261 228 190 179 187
173 171 178 179 190 185 192 189 175 178 178 137 152 154 196 215 251 3 257 219 197 176 198 212 225 217 223 269 264 304 172 182 173 178 178 173 230 279 240 220 184 200 188